#timestamp,LO_Frequency,Hit,StdDev 
1686628815.2,286046998.6,P
1686628835.1,286046999.5,N
1686628836.0,286046999.5,N
1686628855.8,286046999.4,N
1686628875.6,286046996.9,Y
1686628895.5,286046998.5,P
1686628915.3,286046998.3,N
1686628935.2,286047000.8,N
1686628955.9,286046998.4,N
1686628975.7,286047001.2,N
1686628995.6,286047000.9,N
1686629015.4,286046998.6,N
1686629035.3,286047000.7,N
1686629055.1,286047000.6,N
1686629056.0,286047000.6,N
1686629075.8,286047000.9,N
1686629095.7,286047000.7,N
1686629115.5,286047000.6,N
1686629135.3,286047000.4,N
1686629155.2,286047000.6,N
1686629175.0,286047000.0,N
1686629175.9,286047000.0,N
1686629195.8,286047000.4,N
1686629215.6,286047001.2,N
1686629235.4,286047000.3,N
1686629255.3,286047000.4,N
1686629275.1,286047000.4,N
1686629295.9,286046998.3,N
1686629315.7,286046999.5,N
1686629335.5,286046998.8,N
1686629355.4,286047000.8,N
1686629375.2,286047001.0,N
1686629395.0,286047000.8,N
1686629396.0,286047000.8,N
1686629415.8,286047001.1,N
1686629435.6,286047000.4,N
1686629455.5,286046999.0,N
1686629475.3,286046998.6,N
1686629495.1,286046998.6,N
1686629515.9,286046998.6,N
1686629535.8,286047000.7,N
1686629555.6,286047001.0,N
1686629575.4,286046998.2,N
1686629595.3,286047000.6,N
1686629615.1,286047000.7,N
1686629635.9,286047001.2,N
1686629655.7,286047000.7,N
1686629675.5,286047000.9,N
1686629695.4,286047000.6,N
1686629715.2,286047000.8,N
1686629735.0,286047000.5,N
1686629735.9,286047000.5,N
1686629755.8,286047000.9,N
1686629775.6,286047000.5,N
1686629795.5,286047000.6,N
1686629815.3,286047000.3,N
1686629835.1,286047000.6,N
1686629855.9,286047000.4,N
1686629875.7,286047000.9,N
1686629895.5,286047000.6,N
1686629915.4,286047000.0,N
1686629935.2,286046999.8,N
1686629955.1,286047000.8,N
1686629956.0,286047000.8,N
1686629975.8,286047001.2,N
1686629995.6,286047001.2,N
1686630015.5,286046999.8,N
1686630035.3,286047000.4,N
1686630055.2,286047002.8,Y
1686630075.9,286047000.6,P
1686630095.7,286047000.4,P
1686630115.6,286046999.9,N
1686630135.4,286047002.2,Y
1686630155.2,286047002.8,P
1686630175.1,286047000.4,N
1686630176.0,286047000.4,N
1686630195.8,286047000.3,N
1686630215.7,286047002.8,N
1686630235.5,286047002.3,N
1686630255.3,286047002.4,N
1686630275.2,286047002.3,N
1686630295.0,286047002.7,N
1686630295.9,286047002.7,N
1686630315.7,286047000.9,N
1686630335.6,286047001.0,N
1686630355.4,286047001.1,N
1686630375.3,286047000.6,N
1686630395.1,286047000.9,N
1686630415.8,286047000.9,N
1686630435.7,286047000.2,N
1686630455.5,286047002.2,N
1686630475.4,286046999.8,N
1686630495.2,286047002.4,N
1686630515.0,286047002.6,N
1686630516.0,286047002.6,N
1686630535.8,286047002.3,N
1686630555.6,286047000.5,N
1686630575.5,286047001.0,N
1686630595.3,286046999.3,N
1686630615.1,286046999.0,N
1686630635.9,286046998.4,N
1686630655.7,286046998.4,N
1686630675.5,286046998.4,N
1686630695.4,286046998.3,N
1686630715.2,286046998.7,N
1686630735.1,286046998.6,N
1686630736.0,286046998.6,N
1686630755.8,286046998.6,N
1686630775.6,286046998.3,N
1686630795.5,286046999.0,N
1686630815.3,286046997.1,N
1686630835.1,286046997.1,N
1686630855.9,286046996.5,N
1686630875.7,286046996.9,N
1686630895.6,286046996.8,N
1686630915.4,286046999.6,N
1686630935.2,286046996.9,N
1686630955.1,286046997.8,N
1686630956.0,286046997.8,N
1686630975.8,286046997.7,N
1686630995.6,286046997.9,N
1686631015.5,286046997.9,N
1686631035.3,286046997.9,N
1686631055.2,286046995.0,Y
1686631075.9,286046996.6,P
1686631095.7,286046997.0,N
1686631115.6,286046996.8,P
1686631135.4,286046996.5,Y
1686631155.3,286047000.0,P
1686631175.1,286047000.8,N
1686631176.0,286047000.8,N
1686631195.8,286047001.1,N
1686631215.7,286046998.1,N
1686631235.5,286046998.1,N
1686631255.3,286046998.3,N
1686631275.2,286046999.6,N
1686631295.0,286046999.1,N
1686631295.9,286046999.1,N
1686631315.8,286046999.4,N
1686631335.6,286046999.6,N
1686631355.4,286046997.0,N
1686631375.3,286046996.6,N
1686631395.1,286046997.1,N
1686631415.8,286046997.1,N
1686631435.7,286046997.1,N
1686631455.5,286046996.9,N
1686631475.4,286046996.7,N
1686631495.2,286046996.9,N
1686631515.0,286046996.9,N
1686631515.9,286046996.9,N
1686631535.8,286046997.2,N
1686631555.6,286046997.3,N
1686631575.4,286046997.6,N
1686631595.3,286046996.8,N
1686631615.1,286046995.4,Y
1686631635.9,286046997.1,P
1686631655.7,286046997.1,P
1686631675.5,286046996.6,P
1686631695.4,286046997.8,Y
1686631715.2,286046998.5,P
1686631765.1,286047000.9,E
1686631775.0,286046999.3,N
1686631775.9,286046999.3,P
1686631795.7,286046999.3,P
1686631815.6,286046997.3,Y
1686631835.4,286046998.6,P
1686631855.3,286046999.0,N
1686631875.1,286046999.2,N
1686631895.8,286046999.1,Y
1686631915.7,286046998.5,P
1686631935.5,286046998.3,P
1686631955.4,286046999.5,N
1686631975.2,286046996.9,Y
1686631995.0,286046999.3,P
1686631995.9,286046999.3,P
1686632015.8,286046998.2,P
1686632035.6,286046998.5,Y
1686632055.4,286047000.4,P
1686632075.3,286047002.7,P
1686632095.1,286047002.7,N
1686632115.9,286047002.8,N
1686632135.7,286047000.1,N
1686632155.5,286047000.3,N
1686632175.4,286047000.0,N
1686632195.2,286047000.0,N
1686632215.0,286046999.9,N
1686632215.9,286046999.9,N
1686632235.8,286046999.9,N
1686632255.6,286047000.3,N
1686632275.5,286046999.8,N
1686632295.3,286047002.8,N
1686632315.1,286047002.4,N
1686632335.9,286047002.6,N
1686632355.7,286046999.8,N
1686632375.5,286046999.9,N
1686632395.4,286047002.4,N
